Location: Cabo di Oristano
(39.8500°N, 8.4333°E)
Time: 18:15:29
(UTC+00:00)

COSMO-SKYMED 1 - Pass Details

Date: 31 January 2023
Orbit: 621 x 623 km, 97.9° (Epoch: 01 April)

Event Time Altitude Azimuth Distance (km) Brightness Sun altitude
Rises 04:23:46 0° 157° (SSE) 2,889 6.3 -25.5°
Reaches altitude 10° 04:25:58 10° 153° (SSE) 1,987 5.5 -25.1°
Maximum altitude 04:30:13 60° 74° (ENE) 718 3.0 -24.2°
Enters shadow 04:33:39 16° 358° (N) 1,662 4.7 -23.6°
